[[{"header":{"parameterUnit":"m.s-1","parameterCategory":1,"la1":30.2991,"la2":30.254,"lo1":-89.0895,"lo2":-89.0444,"dy":0.0017,"dx":0.0017,"nx":28,"ny":28,"refTime":"2025-02-24T03:00:00:Z","depth":0,"parameterNumber":2,"parameterNumberName":"U-component_of_WINDS"},"data":[0,0,0,0,0,0,0,0,0,0,0,0,0,0,0,0,0,0,0,0,0,0,0,0,0,0,0,0,0,0,0,0,0,0,0,0,0,0,0,0,0,0,0,0,0,0,0,0,0,0,0,0,0,0,0,0,0,0,-0.3859,-0.3859,0,-0.3863,-0.3863,-0.3863,-0.3849,-0.3848,-0.3848,-0.3847,-0.3851,-0.3852,-0.3852,0,0,0,0,0,0,0,0,0,0,0,0,0,-0.384,-0.384,-0.3859,-0.3859,-0.3859,-0.3863,-0.3863,-0.3863,-0.3849,-0.3848,-0.3848,-0.3847,-0.3851,-0.3852,-0.3852,0,0,0,0,0,0,0,0,0,0,0,0,0,-0.3846,-0.384,-0.3859,-0.3853,-0.3852,-0.3863,-0.3863,-0.3863,-0.3849,-0.3848,-0.3847,-0.3847,-0.3851,-0.3852,-0.3852,-0.387,0,0,-0.3855,-0.3855,0,0,0,0,0,0,0,0,-0.3846,-0.3847,-0.3853,-0.3853,-0.3852,-0.3855,-0.3857,-0.3865,-0.3849,-0.385,-0.3847,-0.3846,-0.3853,-0.3853,-0.3856,-0.387,-0.387,-0.3855,-0.3855,-0.3856,-0.3856,0,0,0,0,0,0,0,-0.3845,-0.3847,-0.3861,-0.3854,-0.3853,-0.3849,-0.385,-0.3859,-0.3855,-0.385,-0.3849,-0.3849,-0.3852,-0.3855,-0.3856,-0.387,-0.3855,-0.3855,-0.3856,-0.3856,-0.39,-0.39,0,0,0,0,0,0,-0.3846,-0.3846,-0.3861,-0.3861,-0.3847,-0.385,-0.385,-0.3855,-0.3855,-0.3854,-0.385,-0.3849,-0.3854,-0.3855,-0.3856,-0.3876,-0.3856,-0.3856,-0.3857,-0.3899,-0.39,-0.39,0,0,0,0,0,0,-0.3845,-0.3847,-0.386,-0.3853,-0.3855,-0.3851,-0.3856,-0.3855,-0.3857,-0.3855,-0.3854,-0.3853,-0.3853,-0.3855,-0.3866,-0.3876,-0.3857,-0.3857,-0.3898,-0.3899,-0.39,-0.3918,0,0,0,0,0,0,-0.3845,-0.3847,-0.3854,-0.3854,-0.3855,-0.3871,-0.3857,-0.3855,-0.3859,-0.3857,-0.3858,-0.3857,-0.3853,-0.3865,-0.3867,-0.3877,-0.3858,-0.3897,-0.3899,-0.39,-0.3916,-0.3919,-0.3922,0,0,0,0,0,-0.3844,-0.3859,-0.3854,-0.3856,-0.3863,-0.3872,-0.3873,-0.3868,-0.3859,-0.3866,-0.3865,-0.3857,-0.3875,-0.3867,-0.3869,-0.3879,-0.3897,-0.3898,-0.39,-0.3915,-0.3919,-0.3922,0,0,0,0,0,0,-0.386,-0.3859,-0.3854,-0.3868,-0.387,-0.3869,-0.3878,-0.3872,-0.3876,-0.3874,-0.3868,-0.3868,-0.3881,-0.3881,-0.3872,-0.3896,-0.3884,-0.3886,-0.3895,-0.3899,-0.3901,-0.3901,-0.3859,0,0,0,0,0,-0.3865,-0.3872,-0.3871,-0.3884,-0.3885,-0.3881,-0.3885,-0.388,-0.3882,-0.3883,-0.3882,-0.3884,-0.389,-0.3895,-0.39,-0.3916,-0.3916,-0.3924,-0.3927,-0.3929,-0.3931,-0.3939,-0.3943,-0.3906,-0.3906,-0.3906,0,0,-0.3876,-0.3876,-0.3881,-0.3887,-0.3888,-0.3895,-0.3882,-0.389,-0.3896,-0.3884,-0.3896,-0.3895,-0.3897,-0.3911,-0.3917,-0.3912,-0.3941,-0.3931,-0.3933,-0.3933,-0.3941,-0.3945,-0.3948,-0.3907,-0.3906,-0.3906,0,0,-0.39,-0.3901,-0.3912,-0.3913,-0.3915,-0.3912,-0.3915,-0.3915,-0.3914,-0.3925,-0.3917,-0.3923,-0.3933,-0.3935,-0.3937,-0.3962,-0.3955,-0.3963,-0.3978,-0.3986,-0.3989,-0.3992,-0.4001,-0.4004,-0.3965,-0.3965,-0.3965,0,-0.3913,-0.3924,-0.3918,-0.3927,-0.393,-0.392,-0.3931,-0.3932,-0.3936,-0.3938,-0.3932,-0.3944,-0.3945,-0.3959,-0.3965,-0.3967,-0.397,-0.3963,-0.3989,-0.3992,-0.3994,-0.4002,-0.4006,-0.3966,-0.3966,-0.3966,-0.3966,0,-0.394,-0.3948,-0.3957,-0.396,-0.3964,-0.3974,-0.397,-0.3974,-0.397,-0.3968,-0.3979,-0.3979,-0.3985,-0.3988,-0.3983,-0.4002,-0.3998,-0.3991,-0.3979,-0.3999,-0.4007,-0.401,-0.3968,-0.3968,-0.3967,-0.3967,0,0,-0.3974,-0.3974,-0.3978,-0.3979,-0.398,-0.3986,-0.3996,-0.4001,-0.4005,-0.4007,-0.4015,-0.4024,-0.4017,-0.402,-0.4016,-0.4023,-0.4042,-0.4015,-0.4015,-0.402,-0.4062,-0.4068,-0.4072,-0.4038,-0.4038,-0.4039,-0.4062,0,-0.3997,-0.4014,-0.4009,-0.4025,-0.4032,-0.4023,-0.4031,-0.4033,-0.4031,-0.4037,-0.4035,-0.4041,-0.4032,-0.4033,-0.404,-0.4039,-0.4051,-0.4037,-0.4045,-0.4046,-0.4045,-0.4076,-0.4082,-0.4104,-0.4065,-0.4066,-0.4066,0,-0.4027,-0.403,-0.4048,-0.4048,-0.405,-0.4058,-0.4062,-0.4068,-0.407,-0.4068,-0.4071,-0.4065,-0.4074,-0.4062,-0.4075,-0.4066,-0.4069,-0.4069,-0.4069,-0.407,-0.4057,-0.4078,-0.4111,-0.4114,-0.4071,-0.407,-0.407,0,-0.405,-0.4059,-0.4071,-0.4072,-0.4073,-0.4078,-0.4079,-0.408,-0.4083,-0.4087,-0.4089,-0.4094,-0.4096,-0.41,-0.4096,-0.4087,-0.4109,-0.4097,-0.4108,-0.4108,-0.4113,-0.4113,-0.4148,-0.4115,-0.4115,-0.4115,-0.4115,0,-0.4076,-0.4087,-0.4081,-0.4088,-0.41,-0.4094,-0.4106,-0.4106,-0.4107,-0.4113,-0.4105,-0.4112,-0.4106,-0.4112,-0.4108,-0.4119,-0.4121,-0.412,-0.4119,-0.412,-0.4121,-0.4123,-0.4121,-0.4116,-0.4116,-0.4116,-0.4115,0,-0.4104,-0.41,-0.4112,-0.4112,-0.4112,-0.4121,-0.412,-0.4127,-0.4124,-0.4133,-0.4135,-0.4131,-0.4138,-0.4134,-0.4141,-0.4138,-0.4153,-0.415,-0.4153,-0.4152,-0.4163,-0.4162,-0.4201,-0.4205,-0.4169,-0.417,-0.417,0,-0.4121,-0.413,-0.413,-0.4134,-0.4135,-0.4141,-0.4145,-0.4139,-0.4143,-0.4145,-0.4152,-0.4158,-0.4162,-0.4173,-0.4171,-0.4176,-0.4173,-0.4186,-0.4174,-0.4176,-0.4174,-0.4173,-0.4174,-0.4189,-0.4189,-0.419,-0.419,0,-0.4152,-0.415,-0.4155,-0.416,-0.4164,-0.4168,-0.4171,-0.4174,-0.4169,-0.4173,-0.418,-0.4184,-0.419,-0.4197,-0.4201,-0.4201,-0.4195,-0.4194,-0.4197,-0.4199,-0.42,-0.42,-0.416,-0.4193,-0.4193,-0.4192,-0.4192,-0.4192,-0.4175,-0.4182,-0.4184,-0.419,-0.4191,-0.4194,-0.42,-0.4199,-0.4204,-0.4209,-0.4206,-0.4214,-0.4215,-0.422,-0.4221,-0.4227,-0.4222,-0.4226,-0.4227,-0.4228,-0.423,-0.4199,-0.4228,-0.4228,-0.4228,-0.4228,-0.4228,0,-0.4206,-0.4206,-0.4212,-0.4216,-0.4221,-0.4215,-0.4217,-0.4222,-0.4229,-0.4231,-0.4235,-0.4243,-0.4249,-0.4247,-0.4253,-0.4258,-0.4255,-0.4259,-0.4259,-0.4259,-0.4234,-0.4232,-0.4262,-0.4262,-0.4261,-0.4261,-0.4261,-0.4261,-0.4223,-0.4234,-0.4232,-0.4244,-0.4244,-0.4252,-0.4254,-0.4256,-0.4258,-0.4267,-0.4272,-0.4271,-0.4271,-0.4276,-0.4281,-0.4281,-0.4283,-0.4289,-0.4287,-0.4264,-0.4261,-0.4258,-0.4255,-0.4289,-0.4289,-0.4311,-0.4312,-0.4312]},{"header":{"parameterUnit":"m.s-1","parameterCategory":1,"la1":30.2991,"la2":30.254,"lo1":-89.0895,"lo2":-89.0444,"dy":0.0017,"dx":0.0017,"nx":28,"ny":28,"refTime":"2025-02-24T03:00:00:Z","depth":0,"parameterNumber":3,"parameterNumberName":"V-component_of_WINDS"},"data":[0,0,0,0,0,0,0,0,0,0,0,0,0,0,0,0,0,0,0,0,0,0,0,0,0,0,0,0,0,0,0,0,0,0,0,0,0,0,0,0,0,0,0,0,0,0,0,0,0,0,0,0,0,0,0,0,0,0,-3.5157,-3.5157,0,-3.5166,-3.5166,-3.5166,-3.51,-3.5099,-3.5097,-3.5095,-3.5102,-3.5104,-3.5105,0,0,0,0,0,0,0,0,0,0,0,0,0,-3.5081,-3.5083,-3.5157,-3.5157,-3.5157,-3.5166,-3.5166,-3.5166,-3.5101,-3.5099,-3.5096,-3.5094,-3.5101,-3.5103,-3.5106,0,0,0,0,0,0,0,0,0,0,0,0,0,-3.5104,-3.5083,-3.5157,-3.5126,-3.5123,-3.5166,-3.5166,-3.5166,-3.5101,-3.5099,-3.5096,-3.5093,-3.51,-3.5103,-3.5106,-3.5178,0,0,-3.5115,-3.5116,0,0,0,0,0,0,0,0,-3.5103,-3.5107,-3.513,-3.5128,-3.5125,-3.5129,-3.5142,-3.517,-3.5102,-3.511,-3.5095,-3.5092,-3.5113,-3.5115,-3.5122,-3.5179,-3.5179,-3.5115,-3.5117,-3.5118,-3.5119,0,0,0,0,0,0,0,-3.5102,-3.5107,-3.5161,-3.5131,-3.5128,-3.5111,-3.5111,-3.5147,-3.5127,-3.5109,-3.5104,-3.5106,-3.5111,-3.512,-3.5122,-3.5179,-3.5115,-3.5117,-3.5119,-3.512,-3.5296,-3.5299,0,0,0,0,0,0,-3.5105,-3.5106,-3.516,-3.5161,-3.5107,-3.5114,-3.5114,-3.5131,-3.5126,-3.5123,-3.5108,-3.5103,-3.5116,-3.5119,-3.5122,-3.5207,-3.5118,-3.512,-3.5122,-3.5293,-3.5297,-3.53,0,0,0,0,0,0,-3.5103,-3.511,-3.516,-3.5132,-3.5137,-3.5118,-3.5137,-3.5132,-3.5141,-3.5126,-3.5122,-3.5121,-3.5114,-3.5118,-3.5165,-3.5206,-3.5122,-3.5124,-3.5289,-3.5294,-3.5298,-3.5378,0,0,0,0,0,0,-3.5101,-3.511,-3.5138,-3.5133,-3.5139,-3.5204,-3.514,-3.5135,-3.5146,-3.5139,-3.5137,-3.5133,-3.5112,-3.5161,-3.5168,-3.5209,-3.5126,-3.5286,-3.5291,-3.5297,-3.5371,-3.5384,-3.5396,0,0,0,0,0,-3.5099,-3.5159,-3.514,-3.5147,-3.5174,-3.5207,-3.521,-3.5185,-3.515,-3.5178,-3.5168,-3.5134,-3.5201,-3.5167,-3.5174,-3.5216,-3.5283,-3.529,-3.5296,-3.5366,-3.5382,-3.5395,0,0,0,0,0,0,-3.5169,-3.5158,-3.5136,-3.5197,-3.5204,-3.5195,-3.523,-3.5202,-3.5218,-3.521,-3.5178,-3.5178,-3.5231,-3.5227,-3.519,-3.5286,-3.5236,-3.5244,-3.5286,-3.5301,-3.5313,-3.5313,-3.5129,0,0,0,0,0,-3.5191,-3.522,-3.5209,-3.5264,-3.5268,-3.5249,-3.5262,-3.5242,-3.5247,-3.5249,-3.5242,-3.5248,-3.527,-3.5285,-3.5304,-3.537,-3.5369,-3.5403,-3.5415,-3.5425,-3.5433,-3.5468,-3.5483,-3.5322,-3.5322,-3.5322,0,0,-3.5238,-3.5236,-3.5256,-3.5278,-3.528,-3.531,-3.5251,-3.5285,-3.5306,-3.5253,-3.5298,-3.5294,-3.5297,-3.5355,-3.5379,-3.5354,-3.5477,-3.5433,-3.5441,-3.5444,-3.5476,-3.5491,-3.5505,-3.5326,-3.5325,-3.5325,0,0,-3.5339,-3.534,-3.5386,-3.539,-3.5395,-3.5382,-3.5393,-3.5389,-3.5384,-3.5429,-3.539,-3.5415,-3.5453,-3.5458,-3.5465,-3.5568,-3.5537,-3.5575,-3.5638,-3.5673,-3.5685,-3.5697,-3.5734,-3.5748,-3.5583,-3.5583,-3.5583,0,-3.5396,-3.544,-3.5413,-3.545,-3.5461,-3.5415,-3.5461,-3.5466,-3.5477,-3.5485,-3.5456,-3.5504,-3.5503,-3.5561,-3.5586,-3.5593,-3.5605,-3.5575,-3.5686,-3.5697,-3.5707,-3.5742,-3.5756,-3.5587,-3.5587,-3.5586,-3.5586,0,-3.5511,-3.5542,-3.5579,-3.5591,-3.5606,-3.5647,-3.5626,-3.5644,-3.5623,-3.5612,-3.5658,-3.5655,-3.5674,-3.5686,-3.5665,-3.5741,-3.5725,-3.5692,-3.5641,-3.5727,-3.576,-3.5773,-3.5594,-3.5592,-3.5591,-3.559,0,0,-3.5656,-3.5654,-3.5668,-3.5673,-3.5675,-3.5698,-3.5737,-3.5756,-3.5772,-3.5781,-3.5813,-3.5847,-3.5816,-3.5825,-3.5804,-3.5834,-3.5917,-3.5797,-3.5797,-3.582,-3.6001,-3.6027,-3.6043,-3.5896,-3.5899,-3.59,-3.6001,0,-3.5755,-3.5823,-3.58,-3.5868,-3.5897,-3.5854,-3.5888,-3.5892,-3.5884,-3.5906,-3.5895,-3.5921,-3.5878,-3.5883,-3.5911,-3.5901,-3.5953,-3.5893,-3.5926,-3.5927,-3.5927,-3.606,-3.6087,-3.6182,-3.6013,-3.6015,-3.6017,0,-3.588,-3.5895,-3.5967,-3.5965,-3.5976,-3.6007,-3.6023,-3.6044,-3.6048,-3.604,-3.605,-3.6023,-3.606,-3.6009,-3.606,-3.602,-3.6032,-3.6029,-3.6032,-3.6035,-3.5978,-3.6067,-3.6211,-3.6226,-3.6036,-3.6035,-3.6033,0,-3.598,-3.6018,-3.6066,-3.6072,-3.607,-3.6093,-3.6093,-3.6094,-3.6108,-3.6121,-3.6129,-3.6146,-3.6156,-3.617,-3.6148,-3.6112,-3.6202,-3.6149,-3.6196,-3.6197,-3.6218,-3.6217,-3.6367,-3.6224,-3.6224,-3.6224,-3.6223,0,-3.6093,-3.6139,-3.6111,-3.6141,-3.6191,-3.6163,-3.6213,-3.6208,-3.621,-3.6237,-3.62,-3.6227,-3.6196,-3.622,-3.6202,-3.6248,-3.6252,-3.6246,-3.6241,-3.625,-3.6251,-3.6258,-3.6251,-3.6227,-3.6227,-3.6226,-3.6225,0,-3.6214,-3.6196,-3.6246,-3.6241,-3.6241,-3.6278,-3.6273,-3.63,-3.6288,-3.6324,-3.633,-3.6312,-3.6338,-3.6317,-3.6342,-3.633,-3.6391,-3.6376,-3.639,-3.6387,-3.6436,-3.6432,-3.6596,-3.6617,-3.646,-3.6461,-3.6462,0,-3.6288,-3.6322,-3.6321,-3.6337,-3.634,-3.6367,-3.638,-3.6354,-3.6369,-3.6377,-3.6403,-3.6426,-3.6443,-3.6486,-3.6474,-3.6493,-3.6479,-3.6535,-3.6482,-3.649,-3.6481,-3.648,-3.6483,-3.6547,-3.6549,-3.655,-3.6551,0,-3.6421,-3.6411,-3.6433,-3.6452,-3.6469,-3.6482,-3.6492,-3.6507,-3.648,-3.6499,-3.6526,-3.6539,-3.6565,-3.6588,-3.6603,-3.6602,-3.6573,-3.6568,-3.658,-3.659,-3.6598,-3.6595,-3.6421,-3.6565,-3.6563,-3.6562,-3.6562,-3.6561,-3.6521,-3.655,-3.6554,-3.6579,-3.6584,-3.6595,-3.662,-3.6612,-3.6634,-3.6654,-3.6637,-3.6669,-3.6672,-3.6689,-3.6692,-3.6716,-3.6693,-3.671,-3.6715,-3.672,-3.6727,-3.6593,-3.6719,-3.6718,-3.6718,-3.6718,-3.6717,0,-3.6654,-3.6654,-3.6678,-3.6694,-3.6713,-3.6684,-3.6694,-3.6712,-3.6741,-3.6747,-3.6765,-3.6795,-3.6818,-3.6808,-3.6828,-3.6849,-3.6836,-3.6855,-3.6854,-3.6854,-3.6747,-3.6735,-3.6866,-3.6866,-3.6866,-3.6866,-3.6866,-3.6866,-3.6725,-3.6773,-3.6763,-3.6813,-3.6813,-3.6845,-3.6853,-3.6863,-3.6867,-3.6903,-3.6922,-3.6916,-3.6916,-3.6935,-3.6954,-3.6951,-3.696,-3.6985,-3.6977,-3.6876,-3.6862,-3.6848,-3.6837,-3.6987,-3.6987,-3.7082,-3.7083,-3.7084]}]]